Location: LDNL
(36.4545°S, 141.6685°E)
Time: 16:15:00
(UTC+10:00)

Courier 1B Rocket - Pass Details

Date: 16 August 2022
Orbit: 920 x 1202 km, 28.2° (Epoch: 25 September)

Event Time Altitude Azimuth Distance (km) Brightness Sun altitude
Exits shadow 04:49:15 45° 343° (NNW) 1,596 5.9 -29.9°
Maximum altitude 04:50:10 46° 2° (N) 1,557 5.9 -29.7°
Drops below altitude 10° 04:57:29 10° 73° (ENE) 3,085 8.4 -28.3°
Sets 05:00:22 0° 78° (ENE) 4,016 9.4 -27.7°
